Home > Weather > Gloucester > Past weeks

Flag for United Kingdom Weather for the Past 2 Weeks in Gloucester, England, United Kingdom

Now
52 °F

Scattered showers. Scattered clouds.


Feels Like: 47 °F
Forecast: 33 / 52 °F
Wind: 15 mph from Northwest

Location: Staverton Private

Current Time: Apr 29, 2016 at 5:07:40 PM

Latest Report: Apr 29, 2016 at 4:20 PM


Visibility: N/A

Pressure: 29.86 "Hg

Humidity: 47%

Dew Point: 32 °F

Location of GloucesterLocation

Historic Weather in Gloucester — Graph

°F

Gloucester Temperature Yesterday

Maximum temperature yesterday: 52 °F (at 3:50 PM)
Minimum temperature yesterday: 34 °F (at 6:20 AM)
Average temperature yesterday: 47 °F

High & Low Weather Summary for the Past Weeks

 TemperatureHumidityPressure
High61 °F (Apr 20, 2:50 PM)100% (Apr 15, 8:20 AM)30.45 "Hg (Apr 15, 8:20 AM)
Low34 °F (Apr 27, 6:50 AM)33% (Apr 20, 11:20 AM)29.50 "Hg (Apr 15, 3:20 PM)
Average50 °F65%30.00 "Hg
* Reported Apr 14 3:20 PM — Apr 29 3:50 PM, Gloucester, Weather by CustomWeather, © 2016

Note: Actual official high and low records may vary slightly from our data, if they occured in-between our weather recording intervals... More about our weather records

Advertising

Gloucester Weather History for the Previous 24 Hours

Scroll right to see more
 ConditionsComfort  
Time TempWeatherWind HumidityBarometerVisibility
3:50 PM
Fri, Apr 29
52 °FScattered showers. Scattered clouds.15 mph47%29.83 "HgN/A
3:20 PM52 °FScattered clouds.13 mph47%29.83 "HgN/A
2:50 PM50 °FScattered clouds.15 mph58%29.83 "HgN/A
2:20 PM50 °FScattered showers. Scattered clouds.16 mph62%29.83 "HgN/A
1:50 PM46 °FScattered showers. Passing clouds.8 mph71%29.83 "HgN/A
1:20 PM45 °FSprinkles. Scattered clouds.16 mph76%29.83 "HgN/A
12:50 PM45 °FSprinkles. Scattered clouds.18 mph71%29.80 "HgN/A
12:20 PM48 °FRain showers. Broken clouds.14 mph50%29.80 "HgN/A
11:50 AM50 °FScattered showers. Scattered clouds.12 mph58%29.77 "HgN/A
11:20 AM48 °FScattered clouds.15 mph50%29.77 "HgN/A
10:50 AM46 °FScattered clouds.15 mph62%29.77 "HgN/A
10:20 AM46 °FScattered clouds.15 mph62%29.77 "HgN/A
9:50 AM46 °FScattered clouds.16 mph57%29.77 "HgN/A
9:20 AM46 °FPassing clouds.13 mph62%29.77 "HgN/A
8:50 AM45 °FPassing clouds.13 mph66%29.77 "HgN/A
8:20 AM43 °FPassing clouds.13 mph66%29.77 "HgN/A
7:20 PM
Thu, Apr 28
50 °FScattered showers. Scattered clouds.16 mph71%29.77 "HgN/A
6:50 PM50 °FScattered clouds.16 mph71%29.77 "HgN/A
6:20 PM50 °FPassing clouds.16 mph71%29.77 "HgN/A
5:50 PM50 °FPassing clouds.13 mph76%29.80 "HgN/A
5:20 PM52 °FScattered showers. Scattered clouds.15 mph72%29.80 "HgN/A
Weather by CustomWeather, © 2016

See weather overviewHow to use our weather pages